Orbital Elements at Epoch 2459000.5 (2020-May-31.0) TDB
Reference: JPL 19 (heliocentric ecliptic J2000)
Element | Value | Uncertainty (1-sigma) | Units |
e | .1618175696000895 | 4.3738e-08 | |
a | 2.23244208887336 | 8.0445e-09 | au |
q | 1.871193735778926 | 1.0079e-07 | au |
i | 6.782070173068406 | 3.8911e-06 | deg |
node | 187.3224359065609 | 3.1649e-05 | deg |
peri | 150.5833438424393 | 3.4006e-05 | deg |
M | 36.54421938318147 | 1.2355e-05 | deg |
tp | 2458876.824145916034 (2020-Jan-28.32414592) | 4.1627e-05 | TDB |
period | 1218.340635584037 3.34 | 6.5853e-06 1.803e-08 | d yr |
n | .2954838650911668 | 1.5971e-09 | deg/d |
Q | 2.593690441967794 | 9.3462e-09 | au |
|
| | Orbit Determination Parameters
Additional Information
|